Tucson, AZ

11:27 PM MST on December 06, 2019 (GMT -0700)
Tucson International

Weather History for KTUS - November, 2019

Change the Weather History Date:

Tuesday, November 12, 2019

  Actual Average Record
Temperature  
Mean Temperature 65 °F 61 °F  
Max Temperature 74 °F 75 °F 90 °F (1999)
Min Temperature 55 °F 47 °F 25 °F (1898)
Degree Days  
Heating Degree Days 0 5  
Month to date heating degree days 1 43  
Since 1 July heating degree days 28 67  
Cooling Degree Days 0 1  
Month to date cooling degree days 55 21  
Year to date cooling degree days 3351 3140  
Growing Degree Days 16 (Base 50)    
Moisture  
Dew Point 38 °F    
Average Humidity 43    
Maximum Humidity 60    
Minimum Humidity 25    
Precipitation  
Precipitation 0.00 in 0.01 in 1.00 in (2003)
Month to date precipitation 0.09 0.20  
Year to date precipitation 10.19 10.29  
Sea Level Pressure  
Sea Level Pressure 30.03 in    
Wind  
Wind Speed 15 mph (ESE)    
Max Wind Speed 31 mph    
Max Gust Speed 44 mph    
Visibility 10 miles    
Events      
T = Trace of Precipitation, MM = Missing Value Source: NWS Daily Summary

Daily Weather History Graph

Daily Weather History Graph

Search for Another Location

Airport or City:

Astronomy

Nov. 12, 2019 Rise Set
Actual Time 6:49 AM MST 5:25 PM MST
Civil Twilight 6:24 AM MST 5:51 PM MST
Nautical Twilight 5:54 AM MST 6:20 PM MST
Astronomical Twilight 5:25 AM MST 6:49 PM MST
Moon 5:53 PM MST (11/12) 6:47 AM MST (11/12)
Length of Visible Light 11h 27m
Length of Day
10h 35m
Full, 100% of the Moon is Illuminated
Nov 12
Full
Nov 19
Last Quarter
Nov 26
New
Dec 3
First Quarter
Dec 11
Full

Hourly Weather History & Observations

Time (MST) Temp. Dew Point Humidity Pressure Visibility Wind Dir Wind Speed Gust Speed Precip Events Conditions
12:53 AM 61.0 °F 41.0 °F 48% 30.02 in 10.0 mi SE 4.6 mph - N/A   Mostly Cloudy
1:53 AM 59.0 °F 42.1 °F 53% 30.03 in 10.0 mi SE 5.8 mph - N/A   Clear
2:53 AM 55.9 °F 42.1 °F 60% 30.02 in 10.0 mi SW 5.8 mph - N/A   Clear
3:53 AM 63.0 °F 46.0 °F 54% 30.01 in 10.0 mi ESE 10.4 mph - N/A   Clear
4:53 AM 63.0 °F 44.1 °F 50% 30.03 in 10.0 mi ESE 16.1 mph - N/A   Clear
5:53 AM 60.1 °F 41.0 °F 49% 30.06 in 10.0 mi ESE 13.8 mph 20.7 mph N/A   Clear
6:53 AM 60.1 °F 39.9 °F 47% 30.09 in 10.0 mi SE 12.7 mph - N/A   Clear
7:53 AM 60.1 °F 39.0 °F 46% 30.11 in 10.0 mi ESE 20.7 mph - N/A   Clear
8:53 AM 62.1 °F 37.0 °F 39% 30.12 in 10.0 mi SE 23.0 mph 35.7 mph N/A   Clear
9:53 AM 64.9 °F 37.9 °F 37% 30.10 in 10.0 mi ESE 23.0 mph 35.7 mph N/A   Clear
10:53 AM 66.9 °F 37.9 °F 34% 30.08 in 10.0 mi ESE 29.9 mph 43.7 mph N/A   Clear
11:53 AM 70.0 °F 37.0 °F 30% 30.06 in 10.0 mi SE 28.8 mph 38.0 mph N/A   Clear
12:53 PM 72.0 °F 37.0 °F 28% 30.03 in 10.0 mi ESE 26.5 mph 36.8 mph N/A   Clear
1:53 PM 73.0 °F 36.0 °F 26% 30.01 in 10.0 mi ESE 18.4 mph 29.9 mph N/A   Clear
2:53 PM 73.9 °F 36.0 °F 25% 30.00 in 10.0 mi ESE 15.0 mph 26.5 mph N/A   Clear
3:53 PM 73.0 °F 36.0 °F 26% 29.98 in 10.0 mi ESE 13.8 mph 24.2 mph N/A   Clear
4:53 PM 70.0 °F 36.0 °F 29% 29.98 in 10.0 mi ESE 13.8 mph 23.0 mph N/A   Clear
5:53 PM 66.9 °F 35.1 °F 31% 29.99 in 10.0 mi East 12.7 mph - N/A   Clear
6:53 PM 64.9 °F 35.1 °F 33% 30.01 in 10.0 mi East 8.1 mph - N/A   Clear
7:53 PM 63.0 °F 34.0 °F 34% 30.01 in 10.0 mi East 12.7 mph - N/A   Clear
8:53 PM 61.0 °F 33.1 °F 35% 30.01 in 10.0 mi East 11.5 mph - N/A   Clear
9:53 PM 60.1 °F 33.1 °F 36% 30.00 in 10.0 mi East 11.5 mph - N/A   Clear
10:53 PM 60.1 °F 32.0 °F 35% 29.99 in 10.0 mi ESE 12.7 mph - N/A   Clear
11:53 PM 57.9 °F 32.0 °F 37% 29.99 in 10.0 mi ESE 17.3 mph 26.5 mph N/A   Clear